Dewpoint
71 71 70 69 69 68 67 66 56 61 60 55 56 58 57 61 63 63 61 64 61 64 66 68 64 65 65 63 63 64 64 59 61 54 55 67 70 72 73 72 73 73 73 74 74 74 75 76 76 76 76 77 77 77 77 77 77 77 77 77 77 76 76 76 76 76 76 75 75 75 75 75 75 75 76 75 75 75 75 75 75 75 75 75 75 75 74 74 75 74 75 76 75 75 76 75 75
70 70 69 68 67 67 65 66 59 58 57 55 56 59 59 62 63 61 61 63 64 65 68 68 66 64 65 62 62 63 63 66 66 66 68 70 71 72 72 72 72 72 73 74 74 75 75 76 76 77 77 77 77 77 76 76 76 76 77 77 76 76 76 76 76 76 76 75 75 75 75 75 75 76 75 75 76 76 75 75 75 75 75 75 75 74 74 74 75 75 75 75 75 75 75 75 75
69 68 68 67 66 67 66 64 56 56 54 52 57 58 61 61 62 61 63 64 66 67 66 67 65 64 65 63 63 61 62 66 66 67 68 71 69 70 71 71 72 72 73 74 74 75 75 76 77 77 77 77 77 76 76 76 76 77 77 77 76 76 76 76 76 76 76 75 75 75 75 75 75 75 75 76 76 75 75 75 75 75 75 75 75 75 75 75 75 75 76 76 75 75 75 74 74
68 66 65 66 67 66 63 63 59 56 54 54 56 61 61 61 61 62 65 66 67 65 65 64 64 62 63 61 62 63 63 63 67 67 67 68 68 69 70 71 73 73 73 73 74 75 75 76 77 77 76 76 76 76 76 76 77 77 76 76 76 76 76 76 76 76 76 75 75 75 75 75 75 75 75 75 76 75 75 75 75 75 76 75 75 75 75 75 74 74 75 75 75 75 74 74 74
72 72 71 66 66 63 62 61 59 58 54 57 55 61 61 62 64 65 65 66 66 66 64 63 60 63 64 62 62 61 62 65 66 67 67 68 69 69 70 71 71 72 72 72 74 75 76 77 77 76 76 76 76 76 76 76 76 76 76 76 75 76 76 76 76 76 76 75 75 75 76 75 75 76 76 75 75 75 75 75 76 75 75 75 75 75 75 75 74 75 75 75 75 75 75 74 74
71 71 70 68 65 68 65 59 57 57 59 58 59 62 62 63 63 64 65 67 66 67 66 65 61 60 61 61 63 62 64 63 66 67 67 67 68 69 69 71 70 70 71 73 74 75 76 77 76 76 76 76 76 76 76 76 76 76 75 76 76 76 76 75 75 75 75 75 75 76 76 76 76 76 76 75 75 75 75 75 75 75 75 75 75 75 75 74 75 75 76 75 75 74 74 74 74
69 69 67 67 70 67 59 58 57 59 61 62 63 62 64 64 65 64 63 64 66 66 66 60 60 59 59 61 62 63 65 65 66 67 67 68 68 68 69 68 67 70 72 73 74 75 75 77 76 76 76 76 76 76 76 76 76 76 76 76 75 75 75 75 75 75 74 75 75 76 76 76 76 76 75 76 75 75 75 75 75 75 75 75 75 75 75 75 75 75 75 74 74 74 74 74 75
70 68 66 65 62 62 58 58 57 62 60 63 64 63 65 65 66 65 64 63 62 63 63 62 62 61 59 61 61 63 65 66 67 67 67 67 67 68 67 66 67 70 72 73 74 75 77 76 76 76 76 76 76 76 76 76 76 76 76 76 75 75 75 75 75 75 75 75 76 76 76 76 76 76 75 75 74 75 75 75 75 75 74 74 75 75 75 75 75 75 74 74 74 74 75 75 74
68 66 68 64 59 61 59 57 57 61 63 63 65 65 66 66 67 65 64 64 63 65 65 60 59 59 60 61 61 63 64 66 67 68 67 67 67 66 66 66 68 70 72 73 74 75 75 76 76 76 76 76 76 76 76 76 76 76 76 76 76 75 75 75 75 75 75 74 75 75 76 76 76 75 75 75 75 75 75 75 74 75 75 75 75 75 75 75 75 74 74 74 74 74 75 75 75
65 65 64 61 62 57 57 55 56 60 62 62 65 64 65 66 65 66 64 63 63 64 63 63 59 60 61 60 61 62 63 66 67 66 66 66 65 65 66 67 69 70 72 74 74 74 75 77 76 76 76 76 76 76 76 76 76 76 76 76 75 75 75 75 75 75 75 75 75 76 76 76 76 75 75 75 75 75 75 75 75 75 74 75 75 75 75 74 74 73 74 74 74 74 74 74 75
65 67 69 61 57 56 55 55 55 60 62 64 64 65 66 66 66 64 66 62 64 63 61 60 60 60 61 61 61 63 64 65 64 64 65 64 64 65 65 67 70 72 73 73 73 74 75 75 76 76 76 76 76 76 76 76 76 76 76 76 76 75 75 75 75 75 75 75 75 76 76 76 76 76 75 74 75 75 75 75 75 74 75 75 75 74 74 73 74 74 74 74 74 74 75 75 75
64 64 66 59 57 56 58 57 56 61 61 63 64 66 67 66 66 64 60 61 61 59 58 60 60 62 61 61 61 63 64 64 64 64 64 64 64 64 66 69 71 72 72 73 74 74 74 75 75 76 76 76 76 76 76 76 76 76 76 76 76 75 75 75 75 75 75 75 75 75 75 76 75 76 76 75 75 75 75 75 75 75 75 75 74 74 73 73 74 74 74 74 73 73 74 74 74
63 66 63 58 57 58 60 59 57 57 63 63 64 65 68 66 65 64 61 60 59 60 60 62 62 62 60 61 62 63 64 64 64 64 64 63 63 65 67 68 70 71 72 73 73 73 74 74 75 75 75 76 76 76 76 76 76 76 76 76 75 75 75 75 75 75 75 75 75 75 75 75 75 75 76 76 75 74 74 75 74 75 75 74 74 74 73 73 74 74 73 74 73 73 74 75 75
62 65 63 57 63 60 59 56 57 55 60 62 64 68 67 66 66 67 61 60 61 61 59 60 62 61 61 61 61 61 63 64 64 64 63 61 63 64 65 67 70 72 72 72 73 73 73 74 74 75 75 75 75 76 76 76 76 76 76 75 75 75 75 75 75 75 75 75 74 74 74 75 74 74 75 75 75 74 74 74 75 74 74 74 74 74 74 74 73 73 73 73 73 73 74 74 74
61 66 64 60 59 58 58 56 54 56 58 63 63 66 66 65 67 67 64 60 62 61 59 61 62 61 59 60 60 60 61 62 63 62 60 61 63 63 64 66 69 71 71 72 73 73 73 74 74 75 75 75 75 75 75 75 76 76 76 75 75 75 75 75 74 74 75 75 74 75 75 75 75 75 75 74 74 74 73 73 74 74 74 74 74 74 74 74 73 73 73 73 73 73 74 74 74
60 64 63 59 56 56 55 55 57 58 59 62 63 66 65 65 67 66 65 65 60 61 61 60 62 61 61 61 60 60 60 61 62 60 59 62 62 62 65 66 68 69 71 72 72 73 73 74 75 75 75 74 74 74 75 75 76 76 76 75 75 75 75 75 75 75 74 74 74 75 75 75 75 74 75 74 75 75 74 74 74 74 74 74 74 74 74 74 73 73 73 73 73 74 74 74 74
59 66 61 57 55 55 56 55 54 58 62 64 64 66 64 63 67 68 67 61 60 60 62 58 60 62 61 61 62 60 60 62 62 58 59 61 61 62 64 65 67 69 70 71 71 71 73 74 74 74 74 74 74 75 75 75 75 76 75 76 75 75 75 75 74 74 74 74 75 75 76 75 75 75 74 74 75 75 74 74 74 74 74 74 74 75 74 74 73 73 73 74 74 75 74 74 75
61 59 58 56 57 55 55 55 55 61 61 63 64 66 65 61 64 63 64 60 60 61 61 61 61 62 62 62 61 60 60 61 58 57 58 59 60 60 62 63 65 67 68 69 69 72 73 73 73 73 73 74 74 75 75 75 75 75 75 75 75 74 75 74 75 75 76 75 75 76 75 76 75 75 75 75 75 75 74 74 74 74 74 74 74 74 74 73 74 74 74 74 75 75 74 74 75
54 59 58 54 56 56 56 58 56 61 59 62 64 67 65 62 65 63 62 60 60 62 61 60 59 61 62 62 60 59 59 59 57 57 57 57 58 59 61 63 64 65 66 68 69 71 72 73 73 73 73 73 74 75 75 75 75 75 75 75 75 76 76 77 76 76 75 75 75 75 76 75 75 76 75 76 77 75 75 75 75 74 74 74 74 74 74 73 74 74 74 74 74 75 75 73 73
53 52 56 56 56 57 56 55 62 58 62 63 64 63 63 64 64 62 62 59 60 59 59 59 60 60 61 61 60 59 59 58 57 57 57 57 57 58 59 60 62 63 65 67 69 71 71 72 72 73 73 73 74 74 75 75 75 75 75 75 75 74 74 75 75 74 75 75 75 75 75 75 75 75 75 75 75 74 73 74 75 75 75 75 74 75 73 74 74 74 75 75 75 77 74 74 73
52 51 50 51 56 56 57 63 63 61 65 61 63 63 62 63 65 64 65 59 60 60 59 58 60 60 61 60 59 59 59 58 57 56 57 57 57 57 58 59 60 62 64 67 69 70 71 71 72 73 73 73 73 74 74 74 74 74 74 74 74 75 75 74 74 74 75 75 75 76 74 74 74 74 74 74 74 74 74 74 74 74 74 74 75 73 74 74 74 74 74 75 75 75 75 73 74
49 51 52 51 57 54 61 55 59 58 60 65 64 62 62 62 66 62 62 60 61 60 59 59 61 62 62 61 59 59 59 58 56 56 56 56 56 57 57 58 59 60 64 66 67 69 70 72 72 73 73 73 73 73 73 74 73 73 73 73 74 74 75 74 75 75 75 76 75 75 74 74 74 75 74 74 74 74 74 73 74 74 74 74 76 74 74 73 74 74 74 74 74 74 74 72 72
47 49 49 47 56 58 57 51 57 57 58 61 59 62 63 64 63 61 61 63 63 62 59 60 60 61 61 61 60 60 59 58 57 56 56 56 56 57 57 57 58 59 63 65 67 69 70 71 72 72 72 72 72 72 73 74 72 72 72 73 73 73 74 74 74 75 75 75 74 75 74 74 75 74 74 74 74 74 74 74 74 74 74 74 76 75 74 74 74 74 74 74 74 74 73 74 76
46 46 48 49 53 52 53 53 58 58 57 61 60 63 64 62 61 60 61 59 62 64 60 58 59 60 61 61 60 60 59 58 57 57 57 57 57 57 57 57 58 60 62 64 67 68 70 71 72 72 72 72 72 73 73 72 72 71 71 74 73 73 74 74 74 74 75 75 74 76 77 74 74 73 73 73 74 74 74 74 74 74 75 74 75 76 74 73 75 76 74 74 74 74 72 74 74
44 44 45 48 53 51 50 53 53 55 58 61 60 61 63 61 64 61 57 59 61 61 61 58 59 59 60 60 60 60 60 59 58 58 58 58 57 58 58 58 59 60 61 62 65 67 68 71 71 70 71 72 72 73 72 72 73 70 71 71 71 75 73 74 74 75 75 76 75 76 76 75 74 74 74 73 73 73 74 74 73 74 74 74 75 74 75 74 74 74 74 74 75 74 74 74 75
41 40 42 43 51 49 48 51 51 52 56 60 60 57 61 64 62 58 57 60 60 60 61 56 58 60 60 61 61 60 60 60 59 59 59 59 58 58 58 58 59 60 61 61 63 65 68 70 70 71 71 71 72 72 72 73 73 73 69 70 71 75 72 72 73 74 73 73 74 75 77 75 74 74 73 73 73 74 74 74 75 74 75 75 75 74 75 75 75 73 74 74 74 74 74 74 75
36 37 40 40 41 50 49 51 51 52 56 59 58 57 59 62 60 55 57 59 59 59 57 56 56 57 59 59 60 60 60 60 60 60 60 60 58 58 58 59 60 62 63 61 61 64 69 68 69 71 71 72 71 71 72 73 73 71 69 69 71 72 71 72 72 72 74 73 72 74 75 75 74 73 73 74 74 74 74 74 74 74 74 75 75 75 76 75 76 74 75 75 75 75 75 74 74
33 32 30 28 30 38 39 42 45 47 50 58 58 57 57 57 55 56 55 58 58 56 56 56 56 56 56 56 57 60 60 60 60 61 60 60 59 58 57 59 60 62 63 62 63 63 67 67 69 70 71 72 71 71 73 72 71 70 70 68 69 71 72 70 71 73 74 73 73 74 74 75 76 74 74 74 74 74 74 74 74 74 74 75 75 75 74 76 75 76 76 75 75 75 76 75 75
29 29 27 27 27 31 39 39 39 47 47 52 58 55 53 52 52 55 56 58 58 57 56 55 56 56 56 56 57 57 57 59 60 61 61 60 59 58 57 58 59 62 63 63 63 64 64 66 68 69 71 72 71 71 71 70 71 69 68 66 69 72 71 70 71 73 72 73 73 74 74 75 76 75 75 74 75 74 74 74 74 75 74 75 75 75 74 75 75 75 75 76 75 74 75 74 75
25 25 25 25 25 27 33 38 39 39 43 49 50 50 50 52 52 54 56 57 57 56 56 56 55 56 56 57 56 57 57 58 59 60 61 59 59 58 56 58 59 61 62 63 63 62 62 63 66 68 70 71 70 70 70 70 68 68 69 67 71 71 70 71 72 71 73 74 73 73 73 74 74 75 75 74 74 74 74 74 74 74 74 75 75 74 74 75 74 74 75 75 76 74 74 73 73
19 21 26 25 26 28 33 36 36 37 41 46 49 47 47 48 54 55 56 57 56 56 56 56 56 56 56 56 56 57 56 58 57 58 59 59 59 58 57 58 58 60 61 63 63 62 62 62 65 67 69 69 70 70 70 70 68 68 70 68 71 70 70 70 72 72 73 73 73 73 73 74 74 75 74 73 74 73 74 74 74 74 75 75 74 74 74 74 74 74 76 74 74 74 73 73 72
27 21 21 23 25 28 31 34 34 34 38 43 49 47 54 50 52 55 57 56 56 56 56 57 56 57 55 56 56 56 56 57 57 58 58 59 59 59 58 58 58 59 60 61 61 62 61 62 64 66 68 68 69 70 70 70 68 68 71 72 70 70 69 70 72 72 72 72 73 73 73 74 74 74 74 73 73 74 74 73 74 74 74 74 74 74 74 73 74 74 76 74 73 72 72 71 74
28 24 25 21 23 25 27 28 30 34 37 40 48 46 49 55 52 55 55 56 56 56 56 56 57 56 55 57 56 56 57 56 57 57 58 59 59 60 59 59 59 59 59 59 60 61 62 63 64 65 65 66 69 70 69 71 69 68 71 69 68 71 67 69 72 72 72 72 73 72 73 75 74 73 73 74 74 74 74 74 75 75 74 74 74 73 73 73 74 73 74 75 73 71 70 69 71
27 23 21 21 20 23 25 27 28 32 35 37 43 43 49 52 50 55 56 56 56 56 58 61 61 62 56 57 57 57 57 56 57 56 57 58 59 59 59 63 60 59 59 58 58 61 63 63 63 64 65 65 69 70 69 70 69 70 70 68 70 69 68 68 70 72 72 73 73 73 74 75 74 74 74 75 75 75 74 74 74 74 75 73 73 73 73 73 73 73 73 74 73 71 70 68 68
27 24 20 18 19 19 19 24 26 26 34 33 41 41 47 50 52 54 55 56 56 56 58 61 61 62 59 57 57 57 56 57 57 56 56 57 58 59 59 60 60 58 59 57 58 61 64 64 65 65 64 65 68 70 69 70 69 70 68 69 65 70 70 68 69 70 72 75 76 74 74 74 74 74 74 75 75 75 74 75 74 74 74 73 73 72 72 72 72 71 71 72 74 71 69 68 67
25 24 18 18 16 16 16 18 21 24 31 29 40 40 44 47 51 52 54 54 55 56 59 60 61 61 61 57 57 57 57 57 57 57 55 57 58 58 59 59 59 57 58 58 59 61 64 65 65 65 64 66 68 70 69 69 68 69 67 69 67 70 73 71 70 71 72 74 75 75 74 73 73 74 74 74 75 76 74 74 75 75 74 74 74 72 72 72 72 71 71 71 71 72 70 67 66
27 24 20 16 12 13 16 18 21 22 27 29 37 41 40 48 49 51 53 53 55 57 58 60 60 60 60 58 57 57 57 57 57 57 56 57 57 58 59 59 59 58 59 58 58 62 63 66 66 65 63 67 68 69 68 69 66 68 67 67 65 68 71 71 69 70 71 72 74 75 75 74 74 76 75 76 75 76 75 76 75 74 74 73 73 74 73 74 73 73 74 75 72 67 64 65 65
28 26 23 18 15 12 10 13 18 20 22 29 30 38 40 50 50 51 52 52 54 57 59 59 60 60 59 58 57 57 58 58 57 58 57 57 57 58 58 59 62 59 60 57 57 63 63 66 65 65 65 68 68 69 68 70 68 68 66 67 66 69 70 70 68 69 70 72 75 75 76 75 76 76 76 75 75 75 74 76 75 75 74 73 73 74 75 77 76 76 73 70 71 68 69 65 68
25 23 21 19 17 13 10 8 13 18 23 30 31 34 42 47 49 50 50 52 54 56 59 60 60 59 59 58 57 57 57 57 57 57 57 57 56 57 57 59 60 60 60 52 57 63 64 66 66 66 66 68 69 70 70 70 71 71 68 68 66 68 71 70 68 69 72 73 74 75 76 77 77 77 76 76 76 76 75 75 75 75 74 75 74 75 75 76 75 74 71 69 69 70 68 69 66
21 19 19 18 17 13 9 13 13 16 20 26 33 33 40 45 49 50 51 51 53 56 57 58 59 59 58 58 58 58 57 57 57 57 57 57 57 58 58 59 60 60 60 50 60 63 65 68 67 66 67 69 69 71 71 71 70 71 70 68 67 67 67 69 70 69 71 73 73 74 76 76 77 77 76 77 77 77 75 76 76 76 74 75 77 72 71 72 74 74 71 72 69 63 64 65 70
19 19 18 16 15 14 10 10 12 13 15 19 31 33 35 45 43 49 50 51 54 56 57 58 59 59 59 59 59 59 58 57 57 57 57 57 58 58 59 59 60 60 60 55 60 63 64 67 67 67 68 70 70 71 71 71 71 71 70 69 69 67 69 67 68 67 69 72 72 73 75 75 76 76 75 77 77 76 77 76 76 77 76 76 77 75 74 74 75 75 73 74 70 68 62 65 67
16 18 18 16 15 13 12 9 8 11 12 15 24 31 34 43 43 45 47 48 53 55 55 57 58 58 59 59 58 59 59 58 57 57 57 57 58 58 60 60 60 60 61 57 60 62 64 67 67 68 69 70 70 71 71 71 70 69 68 67 66 65 63 64 64 64 67 70 70 71 74 74 75 75 75 76 75 75 76 76 76 77 77 76 77 76 76 75 75 74 73 72 72 69 65 67 65
16 16 17 16 15 13 11 9 9 15 21 19 16 29 34 43 43 45 47 48 49 53 54 56 57 57 59 59 58 59 58 58 58 57 57 57 58 58 60 60 59 61 60 57 60 61 64 67 67 68 69 70 71 71 71 72 70 69 67 67 64 65 62 64 64 66 65 69 69 70 72 74 74 74 74 74 74 75 76 76 77 78 77 76 77 75 76 75 74 73 73 72 74 74 67 64 63
17 17 17 16 15 11 9 8 8 12 14 11 13 21 27 33 42 45 47 48 49 51 52 55 56 56 59 59 59 59 59 58 57 57 57 57 58 58 59 60 60 61 61 59 61 62 64 67 68 68 69 70 71 71 71 71 70 70 67 69 66 67 62 64 63 66 65 67 68 69 71 73 73 74 73 74 75 75 76 76 77 77 76 76 78 77 76 75 77 76 76 75 75 75 71 65 65
18 17 17 15 12 10 8 7 8 12 15 13 14 14 23 31 36 46 46 46 48 51 51 55 56 57 58 59 59 59 59 58 58 57 57 57 58 58 59 60 60 61 61 61 61 62 65 66 69 68 69 70 71 71 71 72 71 70 68 69 68 68 68 66 64 68 69 66 67 68 71 72 72 73 74 74 75 75 76 76 76 76 76 76 78 77 77 76 76 75 75 72 73 72 72 72 71
19 19 19 17 16 14 9 7 9 12 16 13 17 14 18 31 35 40 46 46 47 50 51 53 55 56 57 58 59 58 58 58 59 58 58 58 58 59 59 60 60 61 62 64 62 63 66 66 68 68 68 71 71 71 71 72 71 71 68 70 69 67 71 68 64 67 68 68 66 69 71 72 72 72 75 74 76 76 76 76 75 75 75 75 77 75 76 76 76 76 75 74 73 70 74 73 72
21 19 18 17 16 17 19 24 25 22 16 13 13 9 14 18 31 29 35 44 46 47 53 54 55 55 56 57 58 57 57 58 58 59 58 58 58 59 59 60 60 61 63 63 63 63 67 66 67 69 68 70 72 71 71 71 72 71 69 70 69 67 70 68 65 66 68 68 68 71 71 72 73 72 75 74 75 76 76 76 75 74 75 75 75 75 75 76 76 76 76 76 74 72 73 71 72
20 20 17 23 18 19 24 27 27 21 17 18 12 7 6 14 29 29 29 35 46 48 53 53 54 55 56 57 56 56 57 57 58 59 58 59 59 59 59 60 60 61 63 63 63 64 68 67 67 69 69 70 72 71 71 71 72 71 70 70 69 67 70 68 65 65 67 68 67 71 72 73 73 73 74 75 74 75 76 75 75 74 75 75 74 75 75 75 76 77 76 75 74 74 73 73 72
18 18 22 17 21 22 19 22 18 21 18 18 7 6 6 11 26 28 29 26 38 45 52 53 54 55 56 56 56 56 56 56 58 59 60 59 60 59 59 60 60 61 63 63 63 64 67 68 68 68 69 69 72 71 71 71 71 71 70 70 70 68 70 69 67 66 66 68 67 71 72 73 74 73 74 75 74 75 76 75 74 74 73 75 72 76 74 75 75 76 76 75 75 74 72 73 73
16 16 22 23 20 19 16 21 19 21 21 14 12 10 7 22 17 25 23 24 26 29 49 52 53 55 56 56 56 56 55 56 57 59 60 60 61 60 59 60 61 61 63 63 64 66 67 68 68 68 69 69 71 71 71 71 71 71 70 70 70 69 69 69 69 68 66 67 67 70 72 72 74 73 74 74 74 74 76 75 75 75 73 75 73 74 75 74 75 75 75 75 75 75 75 74 73
17 20 18 23 24 20 21 20 19 15 19 18 12 9 16 9 19 14 15 16 22 21 33 51 52 55 56 56 55 55 55 55 56 58 60 61 61 62 61 61 61 61 63 64 64 66 68 69 69 69 69 70 71 72 71 71 71 71 71 70 70 70 68 68 70 70 67 68 67 69 72 72 73 73 73 73 73 73 75 75 74 75 75 75 75 74 74 74 75 75 75 75 74 75 74 75 73
18 21 26 19 18 22 14 23 20 19 17 15 15 12 15 11 23 14 10 10 12 15 27 52 52 55 55 55 54 54 54 54 56 59 60 61 62 62 63 63 63 62 64 64 64 66 68 69 70 70 70 70 70 72 71 71 71 71 71 70 70 70 70 68 69 72 70 69 67 67 70 72 72 73 73 73 73 73 75 75 75 74 76 75 75 75 75 75 75 75 75 74 74 75 74 75 73
21 16 16 17 16 12 22 24 18 16 22 20 28 19 14 15 10 14 11 9 10 11 17 43 53 54 55 55 54 54 53 54 56 59 60 63 63 63 63 63 64 64 64 64 65 66 68 69 70 70 71 71 70 72 71 71 70 70 70 70 70 70 69 68 68 70 71 69 68 67 69 70 72 73 73 73 72 73 74 74 74 74 75 76 75 76 76 76 75 74 75 74 74 74 75 75 74
19 17 13 14 14 15 26 16 23 21 18 21 17 16 15 8 16 10 10 9 6 7 15 38 53 53 54 54 54 54 54 54 56 58 61 63 63 63 63 63 63 64 64 64 66 66 68 70 71 71 71 71 71 71 71 71 70 70 70 70 69 69 69 68 68 68 71 71 70 69 69 70 70 72 72 73 71 74 73 76 74 74 75 75 75 75 75 76 75 75 75 75 74 74 74 75 74
18 17 20 21 19 12 19 28 18 18 19 19 19 21 22 10 21 8 7 9 9 8 15 45 52 53 54 53 53 54 54 55 56 58 60 62 63 63 63 63 63 64 65 65 66 66 68 70 71 71 71 72 71 71 71 71 71 70 70 70 69 69 69 68 68 68 69 71 71 70 70 70 69 72 72 72 72 73 73 75 74 74 75 75 75 75 75 76 76 74 75 74 75 75 75 74 75
20 20 18 20 21 26 24 22 25 27 23 27 18 18 22 18 16 7 6 9 11 10 14 31 52 53 53 52 52 53 54 56 58 59 60 61 62 63 63 63 63 64 65 65 65 66 67 69 71 72 72 72 72 71 72 71 71 70 70 70 70 69 69 68 68 68 67 69 71 71 71 70 68 69 71 71 72 71 73 74 74 74 74 74 75 74 75 75 76 75 74 75 74 75 75 75 75
17 18 18 20 22 22 21 28 15 20 25 23 24 22 27 29 25 9 9 11 12 13 21 23 51 53 52 52 52 53 56 58 58 60 61 61 62 62 62 63 63 64 65 65 65 66 67 68 71 72 72 72 72 71 71 72 71 70 70 70 69 69 69 69 68 68 67 67 70 72 71 70 69 67 70 71 72 71 73 73 74 74 73 74 74 74 75 74 75 75 75 74 74 74 74 74 75
16 17 17 18 19 20 19 20 21 16 18 20 22 21 29 25 25 35 22 15 13 22 24 21 51 52 52 52 52 55 56 58 58 59 60 60 61 62 62 63 63 63 64 65 65 65 66 68 70 71 72 72 72 71 72 72 72 71 70 70 69 69 70 69 68 68 68 67 68 70 71 71 69 67 67 72 71 71 72 72 73 73 73 73 74 74 74 74 75 75 74 75 75 74 73 73 74